Location: ?astrovice
(49.6513°N, 14.9287°E)
Time: 08:07:26
(UTC+00:00)

X-37B - Visible Passes

Search period start: 30 July 2021 00:00
Search period end: 09 August 2021 00:00
Orbit: 383 x 392 km, 45.0° (Epoch: 01 July)

Date Brightness Start Highest point End Pass type
(mag) Time Alt. Az. Time Alt. Az. Time Alt. Az.
02 Aug 2.9 02:35:54 10° S 02:37:49 15° SSE 02:39:43 10° ESE visible
04 Aug 2.3 02:15:58 15° SSW 02:17:29 21° SSE 02:19:57 10° ESE visible
05 Aug 2.9 01:20:05 14° SE 01:20:05 14° SE 01:21:15 10° ESE visible
05 Aug 1.6 02:52:30 10° WSW 02:55:24 32° S 02:58:19 10° ESE visible
06 Aug 1.8 01:56:29 24° S 01:57:11 27° SSE 01:59:57 10° ESE visible
07 Aug 3.0 01:00:38 15° ESE 01:00:38 15° ESE 01:01:28 10° ESE visible
07 Aug 1.4 02:32:54 15° WSW 02:35:10 35° S 02:38:08 10° ESE visible
08 Aug 1.5 01:37:06 32° SSE 01:37:06 32° SSE 01:39:50 10° ESE visible
